Hourly Weather Kozinovka

Today, 22 October, Thursday

Time Temperature Precipitation Wind Pressure Humidity
00:00 +6°C° 0 mm 2 mps 744 mmHg 94%
01:00 +6°C° 0 mm 2 mps 744 mmHg 94%
02:00 +6°C° 0 mm 0 mps 743 mmHg 91%
03:00 +6°C° 0 mm 1 mps 743 mmHg 92%
04:00 +6°C° 0 mm 1 mps 743 mmHg 92%
05:00 +6°C° 0 mm 1 mps 743 mmHg 93%
06:00 +6°C° 0 mm 1 mps 743 mmHg 91%
07:00 +5°C° 0 mm 2 mps 743 mmHg 90%
08:00 +6°C° 0 mm 2 mps 743 mmHg 89%
09:00 +7°C° 0 mm 3 mps 743 mmHg 84%
10:00 +8°C° 0 mm 3 mps 743 mmHg 80%
11:00 +9°C° 0 mm 3 mps 743 mmHg 76%
12:00 +9°C° 0 mm 3 mps 743 mmHg 75%
13:00 +9°C° 0 mm 3 mps 743 mmHg 74%
14:00 +9°C° 0 mm 3 mps 742 mmHg 74%
15:00 +8°C° 0.1 mm 4 mps 742 mmHg 76%
16:00 +8°C° 0.1 mm 4 mps 741 mmHg 78%
17:00 +7°C° 0.1 mm 4 mps 741 mmHg 80%
18:00 +7°C° 0 mm 5 mps 740 mmHg 80%
19:00 +7°C° 0 mm 5 mps 740 mmHg 80%
20:00 +7°C° 0 mm 5 mps 740 mmHg 79%
21:00 +7°C° 0 mm 5 mps 739 mmHg 81%
22:00 +7°C° 0 mm 5 mps 739 mmHg 82%
23:00 +7°C° 0 mm 5 mps 739 mmHg 84%

Tomorrow, 23 October, Friday

Time Temperature Precipitation Wind Pressure Humidity
00:00 +7°C° 0 mm 5 mps 739 mmHg 87%
01:00 +7°C° 0 mm 6 mps 739 mmHg 89%
02:00 +7°C° 0 mm 6 mps 739 mmHg 92%
03:00 +7°C° 0 mm 6 mps 739 mmHg 93%
04:00 +7°C° 0 mm 6 mps 739 mmHg 93%
05:00 +7°C° 0 mm 5 mps 740 mmHg 94%
06:00 +8°C° 0 mm 5 mps 740 mmHg 93%
07:00 +8°C° 0 mm 5 mps 740 mmHg 93%
08:00 +8°C° 0 mm 6 mps 740 mmHg 92%
09:00 +10°C° 0 mm 6 mps 740 mmHg 86%
10:00 +11°C° 0 mm 6 mps 740 mmHg 80%
11:00 +13°C° 0 mm 6 mps 740 mmHg 74%
12:00 +14°C° 0 mm 6 mps 740 mmHg 73%
13:00 +14°C° 0 mm 6 mps 739 mmHg 72%
14:00 +14°C° 0 mm 5 mps 739 mmHg 71%
15:00 +14°C° 0 mm 5 mps 739 mmHg 74%
16:00 +13°C° 0 mm 5 mps 738 mmHg 77%
17:00 +12°C° 0 mm 5 mps 738 mmHg 80%
18:00 +12°C° 0 mm 5 mps 738 mmHg 80%
19:00 +13°C° 0 mm 5 mps 737 mmHg 80%
20:00 +13°C° 0 mm 6 mps 737 mmHg 80%
21:00 +12°C° 0.1 mm 5 mps 737 mmHg 83%
22:00 +12°C° 0.1 mm 5 mps 737 mmHg 85%
23:00 +12°C° 0.1 mm 5 mps 737 mmHg 87%

Day after tomorrow, 24 October, Saturday

Time Temperature Precipitation Wind Pressure Humidity
00:00 +11°C° 0 mm 4 mps 737 mmHg 89%
01:00 +10°C° 0 mm 4 mps 737 mmHg 91%
02:00 +10°C° 0 mm 4 mps 737 mmHg 93%
03:00 +10°C° 0 mm 3 mps 738 mmHg 94%
04:00 +9°C° 0 mm 3 mps 738 mmHg 94%
05:00 +9°C° 0 mm 3 mps 738 mmHg 94%
06:00 +9°C° 0 mm 3 mps 738 mmHg 93%
07:00 +9°C° 0 mm 3 mps 738 mmHg 93%
08:00 +9°C° 0 mm 3 mps 739 mmHg 92%
09:00 +10°C° 0 mm 3 mps 739 mmHg 86%
10:00 +11°C° 0 mm 3 mps 739 mmHg 80%
11:00 +12°C° 0 mm 3 mps 739 mmHg 75%
12:00 +13°C° 0 mm 3 mps 739 mmHg 72%
13:00 +13°C° 0 mm 3 mps 739 mmHg 69%
14:00 +13°C° 0 mm 3 mps 739 mmHg 67%
15:00 +13°C° 0 mm 3 mps 739 mmHg 72%
16:00 +13°C° 0 mm 2 mps 739 mmHg 77%
17:00 +12°C° 0 mm 2 mps 739 mmHg 82%
18:00 +11°C° 0 mm 1 mps 739 mmHg 84%
19:00 +11°C° 0 mm 1 mps 739 mmHg 85%
20:00 +11°C° 0 mm 1 mps 739 mmHg 87%
21:00 +11°C° 0 mm 1 mps 739 mmHg 87%
22:00 +10°C° 0 mm 0 mps 738 mmHg 87%
23:00 +10°C° 0 mm 0 mps 738 mmHg 87%

, 25 October, Sunday

Time Temperature Precipitation Wind Pressure Humidity
00:00 +11°C° 1.1 mm 1 mps 738 mmHg 90%
01:00 +9°C° 1.1 mm 2 mps 738 mmHg 93%
02:00 +9°C° 1.1 mm 2 mps 738 mmHg 95%
03:00 +9°C° 1.2 mm 2 mps 738 mmHg 95%
04:00 +9°C° 1.2 mm 2 mps 738 mmHg 95%
05:00 +9°C° 1.2 mm 2 mps 738 mmHg 95%
06:00 +9°C° 0.1 mm 2 mps 738 mmHg 94%
07:00 +9°C° 0.1 mm 3 mps 738 mmHg 92%
08:00 +7°C° 0.1 mm 4 mps 739 mmHg 91%
09:00 +8°C° 0 mm 4 mps 739 mmHg 85%
10:00 +10°C° 0 mm 4 mps 740 mmHg 79%
11:00 +10°C° 0 mm 5 mps 740 mmHg 74%
12:00 +10°C° 0 mm 5 mps 740 mmHg 74%
13:00 +10°C° 0 mm 5 mps 741 mmHg 74%
14:00 +10°C° 0 mm 5 mps 741 mmHg 75%
15:00 +9°C° 0 mm 5 mps 741 mmHg 75%
16:00 +10°C° 0 mm 4 mps 742 mmHg 75%
17:00 +10°C° 0 mm 4 mps 742 mmHg 76%
18:00 +8°C° 0 mm 4 mps 743 mmHg 76%
19:00 +8°C° 0 mm 4 mps 744 mmHg 75%
20:00 +9°C° 0 mm 3 mps 744 mmHg 75%
21:00 +8°C° 0 mm 3 mps 744 mmHg 78%
22:00 +7°C° 0 mm 3 mps 745 mmHg 80%
23:00 +7°C° 0 mm 3 mps 745 mmHg 83%

25 October, Sunday

Time Temperature Precipitation Wind Pressure Humidity
00:00 +11°C° 1.1 mm 1 mps 738 mmHg 90%
01:00 +9°C° 1.1 mm 2 mps 738 mmHg 93%
02:00 +9°C° 1.1 mm 2 mps 738 mmHg 95%
03:00 +9°C° 1.2 mm 2 mps 738 mmHg 95%
04:00 +9°C° 1.2 mm 2 mps 738 mmHg 95%
05:00 +9°C° 1.2 mm 2 mps 738 mmHg 95%
06:00 +9°C° 0.1 mm 2 mps 738 mmHg 94%
07:00 +9°C° 0.1 mm 3 mps 738 mmHg 92%
08:00 +7°C° 0.1 mm 4 mps 739 mmHg 91%
09:00 +8°C° 0 mm 4 mps 739 mmHg 85%
10:00 +10°C° 0 mm 4 mps 740 mmHg 79%
11:00 +10°C° 0 mm 5 mps 740 mmHg 74%
12:00 +10°C° 0 mm 5 mps 740 mmHg 74%
13:00 +10°C° 0 mm 5 mps 741 mmHg 74%
14:00 +10°C° 0 mm 5 mps 741 mmHg 75%
15:00 +9°C° 0 mm 5 mps 741 mmHg 75%
16:00 +10°C° 0 mm 4 mps 742 mmHg 75%
17:00 +10°C° 0 mm 4 mps 742 mmHg 76%
18:00 +8°C° 0 mm 4 mps 743 mmHg 76%
19:00 +8°C° 0 mm 4 mps 744 mmHg 75%
20:00 +9°C° 0 mm 3 mps 744 mmHg 75%
21:00 +8°C° 0 mm 3 mps 744 mmHg 78%
22:00 +7°C° 0 mm 3 mps 745 mmHg 80%
23:00 +7°C° 0 mm 3 mps 745 mmHg 83%

26 October, Monday

Time Temperature Precipitation Wind Pressure Humidity
00:00 +6°C° 0 mm 2 mps 745 mmHg 84%
01:00 +6°C° 0 mm 2 mps 746 mmHg 85%
02:00 +5°C° 0 mm 2 mps 746 mmHg 86%
03:00 +5°C° 0 mm 2 mps 746 mmHg 87%
04:00 +4°C° 0 mm 2 mps 747 mmHg 87%
05:00 +4°C° 0 mm 2 mps 747 mmHg 88%
06:00 +4°C° 0 mm 2 mps 748 mmHg 87%
07:00 +6°C° 0 mm 1 mps 748 mmHg 86%
08:00 +6°C° 0 mm 1 mps 748 mmHg 85%
09:00 +7°C° 0 mm 1 mps 748 mmHg 79%
10:00 +8°C° 0 mm 1 mps 749 mmHg 74%
11:00 +10°C° 0 mm 1 mps 749 mmHg 68%
12:00 +10°C° 0 mm 1 mps 749 mmHg 65%
13:00 +10°C° 0 mm 1 mps 749 mmHg 63%
14:00 +11°C° 0 mm 1 mps 749 mmHg 60%
15:00 +10°C° 0 mm 1 mps 749 mmHg 64%
16:00 +8°C° 0 mm 2 mps 749 mmHg 68%
17:00 +7°C° 0 mm 2 mps 749 mmHg 72%
18:00 +7°C° 0 mm 2 mps 749 mmHg 75%
19:00 +6°C° 0 mm 2 mps 749 mmHg 77%
20:00 +6°C° 0 mm 2 mps 749 mmHg 79%
21:00 +4°C° 0 mm 3 mps 749 mmHg 80%
22:00 +4°C° 0 mm 3 mps 750 mmHg 82%
23:00 +4°C° 0 mm 3 mps 750 mmHg 84%

27 October, Tuesday

Time Temperature Precipitation Wind Pressure Humidity
00:00 +3°C° 0 mm 3 mps 750 mmHg 85%
01:00 +3°C° 0 mm 3 mps 750 mmHg 86%
02:00 +3°C° 0 mm 3 mps 750 mmHg 87%
03:00 +3°C° 0 mm 3 mps 750 mmHg 89%
04:00 +3°C° 0 mm 3 mps 750 mmHg 90%
05:00 +2°C° 0 mm 3 mps 750 mmHg 91%
06:00 +3°C° 0 mm 3 mps 750 mmHg 89%
07:00 +3°C° 0 mm 4 mps 750 mmHg 86%
08:00 +4°C° 0 mm 4 mps 750 mmHg 84%
09:00 +5°C° 0 mm 4 mps 750 mmHg 79%
10:00 +6°C° 0 mm 5 mps 750 mmHg 74%
11:00 +7°C° 0 mm 5 mps 750 mmHg 69%
12:00 +8°C° 0 mm 5 mps 750 mmHg 68%
13:00 +8°C° 0 mm 5 mps 750 mmHg 67%
14:00 +8°C° 0 mm 4 mps 750 mmHg 66%
15:00 +8°C° 0 mm 4 mps 749 mmHg 68%
16:00 +7°C° 0 mm 4 mps 749 mmHg 70%
17:00 +7°C° 0 mm 4 mps 749 mmHg 72%
18:00 +7°C° 0 mm 4 mps 749 mmHg 72%
19:00 +7°C° 0 mm 5 mps 749 mmHg 71%
20:00 +7°C° 0 mm 5 mps 749 mmHg 71%
21:00 +6°C° 0 mm 5 mps 749 mmHg 71%
22:00 +6°C° 0 mm 4 mps 749 mmHg 72%
23:00 +6°C° 0 mm 4 mps 748 mmHg 73%
Show more